Location: Brantley
(31.5822°N, 86.2569°W)
Time: 20:29:32
(UTC+00:00)

Courier 1B Rocket - Visible Passes

Search period start: 17 February 2026 00:00
Search period end: 27 February 2026 00:00
Orbit: 920 x 1201 km, 28.2° (Epoch: 17 February)

Date Brightness Start Highest point End Pass type
(mag) Time Alt. Az. Time Alt. Az. Time Alt. Az.
17 Feb 5.4 01:08:41 10° SW 01:14:40 47° SSE 01:16:19 39° SE visible
17 Feb 7.3 03:01:29 10° W 03:02:40 16° WSW 03:02:40 16° WSW visible
18 Feb 5.8 00:07:56 10° SW 00:13:35 37° SSE 00:18:58 12° E visible
18 Feb 5.5 02:00:25 10° WSW 02:05:19 52° SW 02:05:19 52° SW visible
19 Feb 5.2 00:59:24 10° WSW 01:05:29 56° S 01:07:59 35° ESE visible
19 Feb 7.0 02:52:26 10° W 02:54:20 21° W 02:54:20 21° W visible
19 Feb 5.5 23:58:27 10° WSW 00:04:23 47° SSE 00:10:25 10° E visible
20 Feb 5.1 01:51:19 10° W 01:56:58 63° SSW 01:56:58 63° SSW visible
21 Feb 5.1 00:50:13 10° WSW 00:56:22 63° S 00:59:35 29° ESE visible
21 Feb 6.7 02:43:24 10° W 02:45:57 25° W 02:45:57 25° W visible
22 Feb 4.9 01:42:15 10° W 01:48:26 65° S 01:48:34 65° S visible
23 Feb 5.0 00:41:05 10° W 00:47:16 66° S 00:51:12 24° ESE visible
23 Feb 6.4 02:34:24 10° W 02:37:33 29° WSW 02:37:33 29° WSW visible
24 Feb 5.0 01:33:13 10° W 01:39:19 59° S 01:40:12 54° SSE visible
25 Feb 5.1 00:32:00 10° W 00:38:11 64° S 00:42:51 18° ESE visible
25 Feb 6.3 02:25:29 10° W 02:29:13 32° WSW 02:29:13 32° WSW visible
26 Feb 5.4 01:24:12 10° W 01:30:11 50° SSW 01:31:54 39° SSE visible
